{"data":{"norad_id":48556,"intl_designator":"2021-041D","name":"STARLINK-2151","alt_names":[],"object_type":"PAYLOAD","status":"ACTIVE","operator":null,"country":"US","launch_date":"2021-05-15","launch_site_code":"AFETR","launch_vehicle":null,"mission":null,"orbit_class":"UNKNOWN","rcs_meters":null,"size_class":null,"mass_kg":null,"dimensions":null,"purposes":["comms"],"wikipedia_slug":null,"has_3d_model":false,"image_url":null,"decayed_at":null,"tle_current":{"epoch":"2026-09-19T17:47:29.153760Z","epoch_age_seconds":102882,"freshness":"FRESH","line1":"1 48556U 21041D   26262.74130965 -.00000298  00000+0  21737-5 0  9993","line2":"2 48556  53.1629 319.3676 0001609  94.0464 266.0722 15.31697652294784","mean_motion":15.31697652,"eccentricity":0.0001609,"inclination_deg":53.1629,"raan_deg":319.3676,"arg_perigee_deg":94.0464,"mean_anomaly_deg":266.0722,"bstar":2.1737e-6,"rev_number":29478,"period_min":94.013332077629,"perigee_km":469.64500906569,"apogee_km":471.84897993512,"semimajor_km":6848.8839945004,"source":"CELESTRAK","updated_at":"2026-09-20T09:00:39.132869Z"}}}